Weather in Protopopivka

Ukraine / Kharkiv Region     50°01′44″N   35°50′17″E
temp.,
°C
wind,
m/s
gust,
m/s
humid.,
%
clouds,
%
prec.,
mm/h
press.,
hPa
HPBL,
m
18 june, fri
fri1800:00+19ne8168988 0.0 1018566
03:00+18ene6149099 1.4 1018514
06:00+17ene6139292 0.4 1019435
09:00+20e7108343 0.4 1020629
12:00+22e7107150 0.0 10211061
15:00+24ene796539 0.0 10201493
18:00+22ene811755 0.1 10201039
21:00+19ene512825 0.1 1021437
19 june, sat
sat1900:00+18ene5128576 0.0 1022392
03:00+18ene6128252 0.0 1021423
06:00+17ene511890 0.0 1022360
09:00+20e610740 0.0 1022604
12:00+23e810640 0.0 1021993
15:00+25e710660 0.0 10201262
18:00+24e710730 0.0 1020945
21:00+20e5118180 0.0 1021356
20 june, sun
sun2000:00+19e5128315 0.0 1020350
03:00+17ene5127875 0.0 1020307
06:00+16e614795 0.0 1020349
09:00+20e71466100 0.0 1019549
12:00+23e71161100 0.0 1018750
15:00+24e61065100 0.0 1018836
18:00+22e71272100 0.0 1017559
21:00+20ene6147722 0.0 1016428
21 june, mon
mon2100:00+19ene513792 0.0 1016338
03:00+19e5136915 0.0 1015329
06:00+17e412790 0.0 1015277
09:00+23ese613650 0.0 1015552
12:00+27ese7135533 0.0 10151158
15:00+28ese711550 0.0 10141376
18:00+26ese712620 0.0 1014591
21:00+21ese411700 0.0 1015208
22 june, tue
tue2200:00+20e4117564 0.0 1015193
03:00+19e413745 0.0 1015259
06:00+18e41179100 0.0 1015216
09:00+24ese61365100 0.0 1015534
12:00+26ese61254100 0.0 1015777
15:00+29ese610524 0.0 10151344
18:00+27e5116095 0.0 1015360
21:00+23ene477195 0.0 1015105